FW6266 Weather Reports


time (UTC)temp
C
wind
direction
speed
KPH
gust
KPH
rain 1hr
cm
rain 24hr
cm
rain mn
cm
humidity
%
barometer
mb
20260509011601 11 0 0.0 0.0 0.00 0.00 0.00 80 1016.1
20260509010054 12 0 0.0 0.0 0.00 0.00 0.00 78 1016.3
20260509004557 12 0 0.0 0.0 0.00 0.00 0.00 77 1016.0
20260509003057 12 94 0.0 1.6 0.00 0.00 0.00 75 1016.1
20260509001553 13 0 0.0 3.2 0.00 0.00 0.00 73 1016.1
20260508234556 13 96 1.6 6.4 0.00 0.00 0.00 70 1015.8
20260508233058 14 0 0.0 4.8 0.00 0.00 0.00 68 1015.8
20260508231606 14 137 0.0 4.8 0.00 0.00 0.00 67 1015.8
20260508230057 15 217 1.6 8.0 0.00 0.00 0.00 66 1015.9
20260508224634 15 0 1.6 11.3 0.00 0.00 0.00 65 1015.7
20260508223059 15 0 3.2 16.1 0.00 0.00 0.00 63 1016.0
20260508221557 15 0 3.2 11.3 0.00 0.00 0.00 63 1015.9
20260508220058 15 97 1.6 14.5 0.00 0.00 0.00 63 1015.8
20260508214600 15 0 0.0 14.5 0.00 0.00 0.00 62 1015.7
20260508213056 16 113 1.6 16.1 0.00 0.00 0.00 61 1015.9
20260508211600 16 103 4.8 12.9 0.00 0.00 0.00 61 1015.7
20260508210055 16 240 6.4 19.3 0.00 0.00 0.00 59 1015.7
20260508204557 16 211 3.2 17.7 0.00 0.00 0.00 59 1015.6
20260508203108 16 153 4.8 14.5 0.00 0.00 0.00 59 1015.5
20260508201602 16 247 3.2 16.1 0.00 0.00 0.00 57 1015.9
20260508200057 17 201 3.2 14.5 0.00 0.00 0.00 56 1015.8
20260508194601 17 259 3.2 19.3 0.00 0.00 0.00 57 1016.0
20260508193055 17 232 3.2 14.5 0.00 0.00 0.00 57 1016.4
20260508191555 16 69 6.4 16.1 0.00 0.00 0.00 57 1016.6
20260508190057 16 221 3.2 16.1 0.00 0.00 0.00 56 1016.8
20260508184554 16 163 4.8 20.9 0.00 0.03 0.00 57 1017.2
20260508183051 16 244 4.8 16.1 0.00 0.03 0.00 56 1017.4
20260508181558 16 159 4.8 19.3 0.00 0.03 0.00 55 1017.4
20260508180057 15 148 1.6 17.7 0.00 0.03 0.00 56 1017.6
20260508174557 16 221 3.2 24.1 0.00 0.03 0.00 56 1017.5
20260508173052 16 91 4.8 16.1 0.00 0.03 0.00 55 1017.8
20260508171552 15 198 6.4 19.3 0.00 0.03 0.00 58 1017.9
20260508170052 15 216 8.0 19.3 0.00 0.03 0.00 59 1018.0
20260508164557 15 99 4.8 19.3 0.00 0.08 0.00 58 1018.3
20260508163111 15 224 3.2 17.7 0.00 0.08 0.00 58 1018.5
20260508161611 15 229 3.2 14.5 0.00 0.08 0.00 56 1018.7
20260508160055 14 153 1.6 14.5 0.00 0.08 0.00 59 1018.7
20260508154611 15 0 0.0 0.0 0.00 0.13 0.00 60 1018.8
20260508153056 14 0 0.0 0.0 0.00 0.13 0.00 58 1019.0
20260508151553 14 0 0.0 0.0 0.00 0.13 0.00 59 1019.0
20260508150059 13 0 0.0 0.0 0.00 0.13 0.00 60 1018.9
20260508144555 13 0 0.0 0.0 0.00 0.20 0.00 60 1018.8
20260508143107 14 0 0.0 0.0 0.00 0.20 0.00 57 1018.9
20260508141552 13 0 0.0 0.0 0.00 0.20 0.00 59 1018.9
20260508140106 13 0 0.0 0.0 0.00 0.20 0.00 58 1019.2
20260508134557 13 0 0.0 0.0 0.00 0.28 0.00 58 1019.2
20260508133105 12 0 0.0 0.0 0.00 0.28 0.00 61 1019.3
20260508131557 11 0 0.0 0.0 0.00 0.28 0.00 64 1019.2
20260508130051 10 0 0.0 0.0 0.00 0.28 0.00 77 1019.0
20260508124554 8 0 0.0 0.0 0.00 0.36 0.00 94 1018.8
20260508123052 6 0 0.0 0.0 0.00 0.36 0.00 94 1018.8
20260508121550 5 0 0.0 0.0 0.00 0.36 0.00 94 1018.7
20260508120058 4 0 0.0 0.0 0.00 0.36 0.00 93 1018.5
20260508114553 3 0 0.0 0.0 0.00 0.43 0.00 93 1018.5
20260508113106 3 0 0.0 0.0 0.00 0.43 0.00 92 1018.2
20260508111604 3 0 0.0 0.0 0.00 0.43 0.00 92 1017.8
20260508110108 3 0 0.0 0.0 0.00 0.43 0.00 91 1017.6
20260508104600 2 0 0.0 0.0 0.00 0.51 0.00 91 1017.4
20260508103102 2 0 0.0 0.0 0.00 0.51 0.00 90 1017.3
20260508101610 3 0 0.0 0.0 0.00 0.51 0.00 90 1017.2
20260508100056 3 0 0.0 0.0 0.00 0.51 0.00 90 1016.9
20260508094551 3 0 0.0 0.0 0.00 0.58 0.00 90 1016.6
20260508093101 3 0 0.0 0.0 0.00 0.58 0.00 90 1016.4
20260508091607 3 0 0.0 0.0 0.00 0.58 0.00 90 1016.4
20260508090103 4 0 0.0 0.0 0.00 0.58 0.00 90 1016.4
20260508084614 4 0 0.0 0.0 0.00 0.69 0.00 90 1016.2
20260508083107 4 0 0.0 0.0 0.00 0.69 0.00 90 1016.3
20260508081559 4 0 0.0 0.0 0.00 0.69 0.00 90 1016.1
20260508080105 5 0 0.0 0.0 0.00 0.69 0.00 90 1016.1
20260508074604 5 0 0.0 0.0 0.00 0.81 0.00 90 1016.1
20260508073100 5 0 0.0 0.0 0.00 0.81 0.00 90 1016.1
20260508071552 5 0 0.0 0.0 0.00 0.81 0.00 90 1015.9
20260508064558 6 0 0.0 0.0 0.00 0.97 0.00 90 1015.9
20260508063102 6 0 0.0 0.0 0.00 0.97 0.00 90 1015.7
20260508061559 6 0 0.0 0.0 0.00 0.97 0.00 91 1015.8
20260508054559 5 0 0.0 4.8 0.00 1.09 0.00 89 1015.6
20260508053106 6 330 0.0 3.2 0.00 1.09 0.00 88 1015.7
20260508051608 6 0 0.0 3.2 0.00 1.09 0.00 88 1015.9
20260508050111 6 0 0.0 3.2 0.00 1.09 0.00 88 1016.0
20260508044557 6 0 0.0 4.8 0.00 1.14 0.00 88 1015.8
20260508043109 6 331 1.6 3.2 0.00 1.14 0.00 88 1015.8
20260508041601 7 0 0.0 3.2 0.00 1.14 0.00 87 1015.9
20260508034555 7 0 0.0 0.0 0.00 1.17 1.14 87 1015.7
20260508033054 7 0 0.0 3.2 0.00 1.17 1.14 87 1015.8
20260508031553 7 0 0.0 4.8 0.00 1.17 1.14 86 1015.8
20260508030057 8 0 1.6 4.8 0.00 1.17 1.14 86 1015.6
20260508024554 8 344 0.0 3.2 0.00 1.30 1.14 85 1015.6
20260508023056 8 0 0.0 3.2 0.00 1.30 1.14 85 1015.3
20260508021600 9 0 0.0 0.0 0.00 1.30 1.14 84 1015.3
20260508020056 9 0 0.0 1.6 0.00 1.30 1.14 83 1015.0
20260508014555 10 0 0.0 3.2 0.00 1.47 1.14 83 1014.9
20260508013056 10 0 0.0 3.2 0.00 1.47 1.14 82 1014.4